Temp_Advection
nan nan nan nan nan nan nan nan nan nan nan nan nan nan nan nan nan nan nan nan nan nan nan nan nan nan nan nan nan nan nan nan nan nan nan nan nan nan nan nan nan nan nan nan
nan -1 -1 -0 -0 -0 0 0 0 -0 -0 0 0 -0 0 0 -0 -0 0 -0 -0 -0 -0 0 0 0 0 0 0 0 0 0 0 0 0 1 1 1 0 0 0 1 1 nan
nan -0 -0 -0 -0 -0 0 -0 -0 -0 -0 0 0 -0 -0 0 0 -0 0 0 -0 -0 -0 -0 0 -0 0 0 0 0 -0 0 0 -0 -0 0 0 0 0 1 1 1 0 nan
nan -0 0 0 -0 -0 -0 -0 -0 0 -0 -0 -0 0 -1 0 1 0 0 -0 -0 -0 -1 -1 -1 0 -0 0 0 0 0 0 0 -0 0 -1 -0 -0 -0 0 0 -0 -1 nan
nan -0 0 -0 -0 -0 -0 -0 -0 0 0 -0 0 0 -0 -0 0 0 -0 -1 -1 -1 -1 -1 -0 -1 -0 0 0 0 0 0 0 0 0 -0 -0 -1 0 0 0 -0 -0 nan
nan -0 -0 -0 -0 0 0 0 0 -0 -0 -0 0 -0 -0 -0 -0 0 -0 -1 -0 -0 -0 -0 -0 -0 -0 -1 -0 -0 -0 0 0 1 -0 -0 -0 0 1 0 0 -0 -0 nan
nan -0 -0 0 -0 0 0 -0 0 -0 0 -0 0 0 -1 -0 0 -0 -0 -1 0 0 -0 -1 -0 -1 -1 -1 -1 -1 -1 -1 -1 -0 -1 -1 -0 0 -0 -0 -0 -0 -0 nan
nan -0 -0 0 -0 -0 0 0 -0 -0 -0 -0 0 -0 -0 -0 -0 -1 -0 1 1 1 -1 -1 -1 -1 -1 -1 -2 -2 -1 -1 -1 -1 -1 -1 -1 -1 -1 -0 -0 -0 -0 nan
nan -0 -0 -0 0 -0 -0 -0 -0 0 -0 -0 -0 -0 -0 -0 0 0 0 1 0 -0 -1 -0 -0 -0 -1 -1 -1 0 -0 -1 -1 -1 -1 -1 -1 -1 -0 0 -0 -0 -1 nan
nan -0 -1 -0 0 0 0 -0 0 0 0 -0 -0 -0 -0 -0 0 0 0 -0 -1 -0 -1 -1 -1 -1 0 0 1 0 -1 -0 0 -0 -1 -1 -0 -1 -0 -1 -1 -1 -1 nan
nan -0 -1 -0 0 0 0 -0 -0 -0 -0 0 0 -0 -0 -0 0 0 -0 -1 -0 -1 -2 -1 0 2 1 0 0 0 1 1 0 -0 -0 -0 -0 -0 -0 -0 -0 -0 -0 nan
nan -0 -0 -1 -1 -0 -0 0 0 0 0 0 -0 -1 -0 0 0 -0 -1 -1 -0 -0 -0 1 1 0 -0 -0 0 0 -0 -1 -1 -0 -0 0 1 1 0 -0 0 0 -0 nan
nan 0 -0 -1 -0 -0 0 0 0 -0 0 -0 -0 -0 -0 -0 -0 -0 -0 -1 -0 -0 -0 0 -0 -0 0 -0 -1 -0 -1 -1 0 0 0 0 1 0 -1 0 1 0 -0 nan
nan 0 -0 -0 -1 -1 -1 -0 -0 0 -0 -0 -1 -0 -0 -0 0 -0 -1 -1 -0 -0 -0 0 -0 -0 0 -0 -0 -0 0 1 1 0 -0 -1 0 1 2 1 1 1 1 nan
nan 0 -0 -0 0 0 -3 -3 -1 0 -0 -0 0 0 0 -0 -0 -1 -2 -0 -0 -0 -0 -0 -0 0 1 0 -0 0 0 1 2 2 0 1 2 2 1 1 1 1 1 nan
nan -0 0 -0 -1 -0 -2 -2 -0 0 0 -0 0 -0 -0 -1 -0 -0 -1 -1 -0 -1 -1 -0 0 0 0 -0 0 1 1 2 2 1 1 2 2 1 0 1 1 1 0 nan
nan -0 -0 -0 -0 -0 -1 -2 -1 0 -0 0 -0 -0 -0 0 -0 -1 -3 -1 -1 -1 -1 0 0 0 1 1 2 2 2 2 2 2 2 1 1 1 1 1 1 0 0 nan
nan -0 -0 -0 -0 -0 -1 -0 -0 0 0 -0 -0 -0 0 -1 -1 -1 -1 -1 -1 -0 1 1 0 1 1 2 1 1 2 2 1 1 1 1 1 1 1 0 0 -0 0 nan
nan -0 -0 -0 -0 -0 -1 -1 0 -0 0 -0 0 0 -0 -1 -0 -1 -2 -0 0 0 1 0 1 1 1 0 1 1 1 1 1 1 1 1 0 0 0 0 -0 0 0 nan
nan 0 0 -0 -0 -0 -0 -0 -2 -0 0 -0 0 -0 -0 0 0 -1 -1 0 0 1 1 1 1 1 0 0 0 0 0 0 0 0 0 0 0 0 0 0 0 0 0 nan
nan 0 -0 -0 -0 -0 -1 -0 -1 0 -0 -0 0 -0 -0 -0 -0 -1 0 0 0 1 2 1 1 1 0 0 0 -0 -0 -0 0 0 0 0 0 0 0 0 0 0 0 nan
nan -0 -0 -0 -0 -0 -0 -0 -0 -0 -0 -0 -0 0 -0 -0 0 -0 0 0 1 0 0 1 1 0 0 0 0 0 -0 0 0 0 0 0 -0 -0 -0 -0 0 0 0 nan
nan -0 -0 -0 -0 -1 -0 -0 0 0 0 0 -0 -0 -0 -0 -0 1 1 1 1 2 1 1 1 -0 -0 0 0 0 0 0 0 -0 -0 -0 -0 -0 -0 0 0 0 1 nan
nan -0 0 -0 -0 -0 -1 -1 -0 -0 -0 0 -0 -0 -1 -1 0 1 1 1 1 1 0 1 1 -0 -1 -0 0 0 0 0 0 0 0 0 0 0 0 0 0 1 1 nan
nan -0 0 -0 -1 -1 -1 0 -0 -0 -0 -0 0 -0 -0 -0 -0 0 1 1 -0 1 1 -0 1 0 -0 0 0 0 0 0 0 -0 -0 -0 0 0 0 -0 -0 -0 -0 nan
nan nan nan nan nan nan nan nan nan nan nan nan nan nan nan nan nan nan nan nan nan nan nan nan nan nan nan nan nan nan nan nan nan nan nan nan nan nan nan nan nan nan nan nan
Wind_Speed
10 5 9 19 6 4 4 4 4 6 6 3 9 8 14 10 15 13 21 20 15 12 7 9 10 10 9 10 16 15 24 29 32 35 36 34 33 37 38 39 37 43 31 30
2 13 14 7 10 8 5 6 9 9 14 7 9 15 12 5 8 17 16 22 18 15 12 12 12 11 10 14 13 11 23 35 32 35 37 38 36 37 34 35 39 40 37 30
13 5 13 11 6 8 7 13 5 9 8 5 3 7 8 3 7 13 17 17 20 19 16 15 15 16 15 14 13 17 18 32 30 36 41 43 38 33 35 34 32 34 35 32
8 11 12 7 11 11 10 9 9 7 2 4 3 5 6 4 6 5 14 18 22 23 18 15 19 19 19 18 18 20 24 35 38 38 37 42 43 41 40 39 35 35 33 35
7 5 12 16 6 8 11 8 9 6 5 2 4 2 7 1 6 10 10 27 24 26 22 19 18 20 18 20 21 22 25 30 31 29 35 42 40 40 40 38 40 40 34 34
4 1 6 8 11 11 2 3 3 2 2 5 7 7 5 4 6 5 5 23 28 28 26 22 18 18 22 23 22 23 24 28 31 32 34 41 43 41 40 39 43 45 43 40
5 12 2 2 3 6 5 4 2 2 2 6 4 4 7 7 9 8 10 17 25 29 30 28 26 26 26 24 24 23 25 28 31 34 34 37 37 36 38 37 44 43 43 41
9 8 16 5 10 6 10 9 6 6 4 4 3 6 6 9 9 13 19 22 17 26 31 32 30 28 29 29 28 26 27 28 29 32 33 33 33 32 35 37 37 40 44 45
3 5 3 9 12 12 5 6 7 1 2 1 4 6 8 7 8 6 10 12 20 24 28 34 33 31 30 31 33 33 32 30 30 32 31 32 32 34 35 37 38 41 42 43
5 5 6 6 5 9 10 8 3 0 5 5 4 4 5 6 9 7 7 12 20 21 21 27 34 35 34 33 32 34 35 33 32 33 33 34 35 37 38 38 40 40 42 42
6 1 6 6 4 8 4 9 3 4 5 5 2 6 8 11 9 7 9 14 17 21 21 21 27 33 35 35 34 35 36 36 37 36 34 35 36 36 36 38 39 39 39 40
3 3 4 9 11 5 2 8 13 9 6 2 3 10 4 8 6 8 10 10 14 17 18 20 23 27 31 35 37 38 38 38 38 36 35 35 38 38 40 41 40 40 41 42
2 2 4 6 4 2 4 5 5 3 3 14 7 6 3 6 7 6 10 11 9 8 13 17 19 22 24 28 32 37 39 41 41 38 37 41 41 45 42 42 43 43 44 44
4 6 7 5 12 14 12 7 12 10 6 8 14 4 5 7 8 8 14 14 9 10 12 15 19 20 23 25 26 28 30 34 39 44 45 43 43 44 44 45 46 47 48 46
5 5 8 12 16 16 27 23 15 17 12 10 6 12 10 10 9 14 26 17 13 14 10 17 23 23 24 26 26 27 27 28 31 35 41 45 50 50 49 48 47 47 45 43
3 4 4 12 14 18 22 21 14 9 5 4 5 6 7 11 14 8 17 19 17 19 17 19 25 25 27 28 27 28 29 30 31 31 32 34 39 42 44 45 44 42 41 41
4 4 2 5 5 15 8 22 20 10 6 8 7 8 4 6 7 13 27 32 29 27 21 27 26 26 25 28 30 32 30 29 30 30 30 30 29 30 31 31 33 33 32 30
8 4 2 3 4 5 7 6 16 14 10 9 6 6 7 8 21 30 26 28 31 29 29 27 23 21 24 24 23 22 23 24 24 25 26 24 24 24 24 24 23 21 20 20
16 10 3 2 3 7 12 7 3 7 15 11 13 9 9 16 8 17 19 28 30 25 20 20 19 17 14 12 11 11 12 12 12 14 15 16 14 11 11 12 14 17 18 19
14 15 6 2 3 5 6 7 22 2 6 6 8 9 9 7 1 7 13 14 16 13 15 19 14 13 9 6 4 3 3 2 4 5 5 5 4 5 5 7 8 11 12 15
7 8 16 11 5 7 9 4 22 4 5 3 6 11 8 4 9 21 7 9 11 16 20 20 16 12 9 7 4 5 7 10 10 9 7 6 6 5 4 6 7 9 10 11
4 2 5 6 5 5 8 4 2 4 14 7 14 18 9 5 5 13 8 12 17 18 17 16 16 15 13 10 7 11 11 10 7 6 5 3 1 1 3 5 6 7 7 9
3 5 3 6 5 7 5 8 19 18 12 16 21 21 20 6 17 25 10 13 17 19 19 17 16 17 16 13 8 11 11 7 5 4 5 4 3 3 2 2 3 5 8 10
5 4 4 1 7 14 17 15 19 22 17 16 20 20 23 16 4 12 17 19 20 20 19 16 16 17 17 14 14 14 12 9 7 5 7 5 3 4 5 5 6 6 6 5
6 1 1 6 14 18 15 11 18 9 3 12 10 16 14 16 7 17 20 19 18 18 18 15 13 19 19 17 17 16 13 10 10 12 11 10 9 9 8 8 9 8 10 7
5 7 3 5 11 8 14 21 22 14 11 7 13 15 10 9 7 14 17 19 18 18 19 15 15 19 21 18 17 15 13 10 10 13 14 13 11 11 10 9 7 5 4 6
Wind_Direction
181 158 199 215 190 171 159 180 233 260 258 339 281 277 279 255 238 232 211 197 200 213 203 192 211 195 201 223 218 223 201 187 181 177 170 169 179 184 186 187 183 178 187 191
152 226 219 167 191 201 196 245 263 299 280 174 287 299 294 191 240 240 209 203 201 189 193 196 209 198 200 207 207 211 205 183 183 175 174 174 173 177 175 176 184 192 190 202
212 220 186 178 172 194 216 224 226 222 313 249 268 298 288 257 248 276 250 221 207 200 192 191 198 199 202 201 200 196 189 182 187 183 181 180 180 183 180 182 189 191 196 201
234 220 233 216 215 193 227 198 229 252 74 257 93 279 293 261 272 264 259 228 207 196 199 205 195 199 200 205 203 194 196 191 189 190 192 185 188 193 199 197 199 198 202 209
223 184 208 223 211 159 241 156 202 228 210 234 251 279 262 342 284 252 238 242 224 207 205 209 207 201 198 197 202 205 201 203 204 205 207 191 196 201 207 203 208 204 213 215
232 222 173 213 220 176 116 197 217 148 147 245 206 183 267 211 223 286 248 238 237 214 208 210 211 208 201 203 203 203 199 199 203 208 205 203 204 209 215 220 212 212 219 221
280 247 246 207 156 185 162 110 296 323 216 233 199 160 250 265 229 220 257 251 240 221 209 209 208 206 205 206 208 206 202 202 206 209 207 207 210 217 221 221 216 218 219 226
201 239 209 184 205 174 204 177 164 202 217 259 131 227 243 239 274 249 267 272 247 228 213 211 214 212 207 209 207 206 206 206 205 209 208 210 215 218 218 218 220 222 224 228
326 262 279 191 197 191 181 190 193 190 115 329 230 289 310 261 300 296 254 222 216 219 215 211 215 218 219 212 210 207 208 209 210 213 213 215 218 218 217 220 226 228 232 234
341 290 291 273 193 239 208 162 177 349 185 232 262 256 223 306 291 302 278 229 218 222 219 218 219 221 220 223 220 216 214 213 213 215 216 218 221 222 223 227 230 232 234 235
16 262 291 340 209 179 162 219 214 175 165 209 241 253 210 233 249 270 274 258 238 221 221 224 227 230 228 226 226 224 223 221 221 220 222 225 227 228 229 232 235 237 240 242
69 301 275 246 253 232 259 217 213 225 219 214 211 239 231 220 255 224 247 255 249 240 233 233 236 235 235 235 233 231 230 229 231 232 232 237 234 235 236 240 244 247 251 253
45 349 315 330 269 24 210 196 213 188 118 233 225 259 239 226 219 222 267 261 216 232 234 238 243 244 243 241 240 242 239 240 238 237 241 243 246 241 245 247 249 251 255 258
190 198 212 279 301 315 296 235 215 206 213 222 239 211 276 243 243 236 235 254 245 239 252 240 240 241 243 244 246 247 249 248 245 244 239 240 247 252 252 254 257 259 261 263
203 245 234 254 273 290 285 266 234 212 221 208 197 211 224 226 219 238 240 250 236 232 230 235 235 240 242 242 244 248 248 249 248 245 245 245 244 249 254 256 259 261 263 266
219 259 192 284 279 279 265 260 245 224 184 224 255 255 232 251 237 259 247 242 247 241 242 242 236 237 245 246 241 244 246 247 249 249 249 250 250 251 254 258 262 265 267 268
284 284 239 270 338 318 267 226 234 229 199 169 212 224 251 267 218 236 246 252 252 252 246 231 232 238 239 245 245 246 251 254 253 254 254 254 256 256 257 260 261 263 266 270
245 264 273 260 347 255 289 230 212 216 229 210 200 219 239 233 276 282 265 254 247 251 250 239 224 224 235 242 247 247 247 248 247 247 248 250 251 252 254 257 259 261 261 262
209 217 261 261 256 305 296 293 179 178 248 224 225 209 240 276 287 277 267 252 246 254 235 207 203 211 208 214 225 234 239 240 235 231 232 237 244 242 243 250 246 240 245 251
200 201 206 200 238 245 219 296 329 350 277 243 199 219 223 158 226 275 294 229 220 209 201 188 174 160 150 152 171 176 159 149 138 150 165 171 191 207 213 225 242 250 264 269
194 199 213 221 232 271 264 12 326 220 243 313 360 257 197 200 190 247 257 173 152 151 149 152 146 139 135 132 132 122 113 115 121 130 144 156 159 171 222 258 279 273 269 268
229 230 190 202 196 261 222 116 231 249 321 303 349 23 353 244 316 297 191 155 150 139 131 134 137 130 122 119 126 127 123 125 130 136 134 130 72 303 308 297 290 277 267 252
269 211 188 197 220 258 231 267 276 281 298 325 344 1 8 38 264 269 241 170 145 139 138 135 135 127 119 118 120 133 116 117 109 87 83 53 38 349 301 291 262 214 208 209
247 186 234 346 263 255 282 285 326 305 285 324 311 334 7 355 242 173 154 136 133 133 127 128 133 125 118 114 108 102 105 107 107 104 120 111 120 135 142 156 162 174 172 169
215 198 248 274 277 287 292 341 352 330 320 4 294 326 353 358 85 118 132 136 132 123 125 133 130 125 124 126 122 120 123 123 125 123 117 115 116 111 114 108 98 90 87 77
217 240 186 247 301 306 298 318 322 318 301 303 301 286 264 287 205 170 136 127 130 141 128 130 134 126 127 129 125 125 123 120 111 109 109 107 101 93 82 74 72 58 21 348
Height
1457 1465 1466 1455 1462 1464 1466 1469 1472 1467 1461 1460 1457 1456 1444 1443 1444 1445 1446 1447 1450 1449 1449 1451 1453 1454 1455 1457 1459 1463 1463 1466 1469 1473 1478 1485 1491 1499 1505 1510 1515 1518 1525 1530
1458 1455 1451 1454 1459 1463 1464 1468 1468 1462 1453 1460 1456 1452 1439 1440 1439 1437 1441 1443 1447 1447 1447 1450 1451 1451 1453 1456 1459 1462 1463 1464 1470 1474 1481 1486 1493 1500 1505 1507 1515 1520 1524 1531
1449 1447 1445 1451 1457 1463 1462 1463 1464 1466 1455 1454 1454 1455 1441 1435 1435 1434 1434 1438 1441 1441 1444 1447 1449 1450 1452 1455 1458 1461 1464 1468 1471 1476 1481 1487 1494 1501 1505 1509 1513 1519 1524 1529
1446 1441 1446 1448 1450 1454 1461 1451 1455 1459 1466 1476 1453 1473 1448 1434 1434 1433 1429 1432 1435 1437 1440 1444 1447 1450 1450 1453 1457 1460 1464 1466 1470 1474 1480 1486 1490 1495 1501 1508 1514 1518 1522 1525
1438 1437 1441 1445 1444 1449 1451 1446 1452 1455 1462 1463 1457 1470 1449 1436 1434 1427 1423 1422 1429 1433 1434 1438 1441 1445 1448 1452 1455 1458 1462 1466 1471 1475 1478 1483 1489 1494 1498 1505 1510 1515 1519 1521
1435 1432 1433 1433 1435 1441 1442 1447 1449 1453 1461 1471 1455 1460 1451 1438 1429 1422 1418 1417 1419 1427 1432 1435 1440 1443 1446 1451 1453 1457 1458 1463 1467 1471 1475 1479 1483 1489 1495 1500 1503 1508 1513 1517
1437 1432 1429 1429 1435 1437 1441 1452 1469 1471 1472 1463 1445 1456 1439 1422 1418 1416 1414 1413 1412 1418 1425 1431 1435 1439 1442 1445 1449 1453 1456 1460 1464 1468 1470 1475 1480 1485 1489 1494 1499 1502 1506 1510
1437 1438 1428 1425 1428 1434 1437 1443 1464 1463 1468 1454 1447 1450 1433 1413 1409 1409 1408 1409 1410 1412 1418 1423 1429 1434 1438 1441 1444 1447 1452 1456 1459 1465 1467 1471 1475 1479 1483 1489 1494 1496 1501 1504
1435 1430 1413 1413 1417 1423 1434 1443 1436 1447 1452 1459 1447 1433 1418 1408 1405 1405 1404 1405 1403 1406 1409 1416 1423 1428 1431 1436 1439 1443 1448 1452 1456 1462 1464 1468 1472 1475 1478 1483 1488 1492 1497 1499
1437 1437 1420 1416 1414 1415 1418 1422 1439 1450 1456 1457 1445 1437 1431 1414 1408 1405 1403 1402 1401 1403 1405 1411 1417 1421 1425 1430 1435 1440 1444 1447 1452 1457 1460 1465 1469 1473 1476 1480 1483 1486 1491 1492
1443 1439 1430 1418 1416 1419 1423 1423 1423 1426 1438 1441 1446 1439 1414 1409 1403 1406 1402 1399 1400 1401 1401 1405 1410 1414 1421 1426 1430 1434 1439 1444 1447 1451 1456 1461 1464 1468 1471 1474 1478 1481 1484 1486
1447 1447 1439 1421 1410 1409 1412 1413 1416 1429 1432 1437 1438 1422 1400 1400 1400 1401 1400 1397 1398 1398 1400 1403 1408 1412 1416 1420 1423 1426 1432 1436 1439 1445 1449 1451 1456 1460 1464 1467 1470 1473 1475 1479
1445 1448 1441 1423 1415 1408 1413 1411 1411 1415 1422 1418 1434 1421 1396 1398 1398 1397 1397 1397 1396 1397 1397 1400 1405 1407 1410 1414 1418 1420 1425 1428 1433 1440 1443 1447 1449 1450 1455 1459 1463 1467 1470 1472
1446 1445 1445 1438 1434 1429 1425 1407 1404 1409 1424 1413 1406 1409 1400 1395 1395 1393 1394 1393 1394 1395 1395 1397 1401 1404 1406 1409 1413 1415 1418 1422 1427 1432 1437 1440 1441 1442 1447 1452 1455 1457 1460 1463
1443 1442 1438 1436 1435 1435 1423 1411 1397 1398 1397 1408 1401 1404 1399 1393 1390 1388 1386 1389 1391 1393 1392 1394 1397 1399 1402 1405 1408 1410 1413 1415 1418 1422 1426 1427 1433 1437 1441 1444 1447 1450 1452 1454
1441 1440 1432 1432 1423 1417 1413 1396 1393 1388 1389 1392 1396 1398 1388 1383 1383 1385 1384 1384 1384 1387 1388 1389 1391 1395 1397 1399 1402 1404 1406 1409 1413 1415 1417 1423 1427 1432 1435 1438 1440 1443 1444 1446
1446 1438 1427 1417 1416 1418 1408 1381 1379 1383 1383 1384 1396 1389 1381 1380 1381 1381 1379 1378 1379 1380 1382 1382 1384 1388 1392 1394 1397 1399 1403 1406 1409 1411 1415 1418 1423 1426 1429 1432 1435 1437 1438 1440
1438 1437 1433 1424 1418 1410 1385 1368 1365 1372 1373 1375 1376 1376 1375 1376 1375 1376 1372 1372 1371 1374 1375 1376 1379 1384 1387 1390 1393 1396 1399 1402 1405 1408 1411 1415 1419 1422 1425 1428 1430 1432 1433 1434
1429 1432 1431 1422 1416 1410 1393 1375 1370 1371 1368 1365 1367 1369 1369 1368 1372 1367 1363 1364 1366 1366 1370 1373 1376 1380 1384 1387 1390 1393 1395 1399 1402 1405 1409 1413 1416 1418 1421 1423 1426 1427 1428 1429
1417 1419 1428 1421 1418 1409 1389 1380 1376 1367 1378 1360 1361 1363 1364 1366 1375 1365 1362 1361 1362 1361 1366 1369 1375 1380 1382 1385 1388 1391 1393 1397 1401 1405 1408 1412 1414 1416 1419 1421 1423 1424 1426 1427
1415 1416 1415 1415 1410 1400 1381 1377 1383 1384 1381 1359 1358 1355 1356 1361 1357 1359 1361 1359 1359 1364 1364 1369 1374 1377 1381 1385 1388 1390 1393 1398 1401 1404 1407 1410 1412 1415 1417 1419 1421 1422 1424 1425
1411 1401 1400 1402 1399 1398 1376 1376 1389 1374 1364 1360 1356 1354 1357 1354 1359 1366 1362 1360 1362 1365 1369 1372 1374 1377 1382 1386 1390 1393 1395 1399 1402 1404 1407 1410 1412 1415 1417 1419 1421 1422 1423 1424
1407 1400 1396 1398 1391 1371 1369 1368 1368 1370 1365 1362 1360 1361 1357 1355 1362 1366 1361 1364 1365 1366 1369 1373 1375 1379 1384 1388 1394 1397 1399 1402 1404 1406 1409 1411 1413 1415 1417 1419 1420 1421 1423 1424
1396 1390 1393 1391 1371 1369 1365 1367 1365 1363 1361 1360 1361 1362 1359 1360 1360 1361 1362 1366 1367 1369 1372 1379 1379 1381 1387 1393 1398 1400 1403 1404 1406 1407 1409 1412 1413 1415 1416 1418 1419 1421 1423 1424
1389 1385 1386 1386 1374 1369 1364 1364 1364 1361 1360 1360 1362 1364 1362 1366 1369 1366 1367 1368 1372 1373 1375 1383 1390 1383 1390 1396 1397 1401 1404 1405 1405 1407 1410 1413 1415 1417 1418 1420 1422 1424 1426 1428
1382 1380 1386 1384 1376 1370 1368 1365 1361 1360 1358 1356 1359 1363 1363 1368 1370 1369 1371 1370 1370 1380 1378 1384 1395 1392 1394 1396 1399 1403 1405 1407 1409 1409 1413 1416 1418 1420 1421 1423 1425 1427 1428 1429